Flag for Turkey Weather past 2 weeks in Ankara, Turkey

Now
36 °F

Partly cloudy.


Feels Like: 36 °F
Forecast: 29 / 40 °F
Wind: 2 mph from North

Location: Ankara / Esenboga

Current Time: Dec 21, 2014 at 7:46:25 PM

Latest Report: Dec 21, 2014 at 6:50 PM


Visibility: N/A

Pressure: 30.01 "Hg

Humidity: 87%

Dew point: 32 °F

Location of AnkaraLocation

Historic Weather in Ankara — Graph

°F

Ankara temperature yesterday

Maximum temperature yesterday: 45 °F (at 1:20 PM)
Minimum temperature yesterday: 30 °F (at 9:20 PM)
Average temperature yesterday: 37 °F

Past Weeks' High & Low Weather Summary

 TemperatureHumidityPressure
High55 °F (Dec 10, 1:20 PM)100% (Dec 8, 2:50 AM)30.36 "Hg (Dec 8, 2:50 AM)
Low28 °F (Dec 18, 12:20 AM)59% (Dec 10, 1:20 PM)29.83 "Hg (Dec 9, 11:50 AM)
Average40 °F88%30.13 "Hg
* Reported Dec 6 6:20 PM — Dec 21 6:50 PM, Ankara, Weather by CustomWeather, © 2014

Note: Actual official high and low records may vary slightly from our data, if they occured in-between our weather recording intervals... More about our weather records

Advertising

Ankara weather history for previous 24 hours

 ConditionsComfort  
Time TempWeatherWind HumidityBarometerVisibility
6:50 PM
Dec 21
36 °FPartly cloudy.2 mph87%30.01 "HgN/A
6:20 PM36 °FPartly cloudy.3 mph87%30.01 "HgN/A
5:50 PM36 °FPartly cloudy.3 mph87%30.01 "HgN/A
5:20 PM36 °FPartly cloudy.5 mph87%30.01 "HgN/A
4:50 PM37 °FPartly cloudy.2 mph81%30.01 "HgN/A
4:20 PM37 °FBroken clouds.6 mph87%30.01 "HgN/A
3:50 PM41 °FBroken clouds.3 mph81%30.01 "HgN/A
3:20 PM41 °FBroken clouds.3 mph81%30.01 "HgN/A
2:50 PM41 °FBroken clouds.5 mph81%30.01 "HgN/A
2:20 PM41 °FBroken clouds.6 mph81%30.01 "HgN/A
1:50 PM41 °FBroken clouds.8 mph76%30.04 "HgN/A
1:20 PM41 °FBroken clouds.8 mph76%30.04 "HgN/A
12:50 PM39 °FBroken clouds.12 mph81%30.04 "HgN/A
12:20 PM39 °FBroken clouds.7 mph87%30.07 "Hg4 mi
11:50 AM39 °FBroken clouds.8 mph87%30.07 "Hg4 mi
11:20 AM37 °FFog.6 mph93%30.09 "Hg3 mi
10:50 AM37 °FFog.5 mph93%30.09 "Hg3 mi
10:20 AM37 °FFog.6 mph100%30.09 "Hg2 mi
9:50 AM36 °FFog.2 mph100%30.09 "Hg2 mi
9:20 AM36 °FFog.3 mph100%30.09 "Hg2 mi
8:50 AM36 °FFog.3 mph100%30.12 "Hg1 mi
8:20 AM36 °FPartly sunny.2 mph93%30.09 "Hg1 mi
7:50 AM34 °FPartly sunny.2 mph100%30.09 "Hg1 mi
7:20 AM34 °FPartly sunny.3 mph100%30.12 "Hg1 mi
6:50 AM34 °FPassing clouds.1 mph100%30.12 "Hg1 mi
6:20 AM34 °FPassing clouds.1 mph100%30.12 "Hg1 mi
5:50 AM34 °FPassing clouds.2 mph100%30.12 "Hg1 mi
5:20 AM34 °FPassing clouds.No wind100%30.12 "Hg1 mi
4:50 AM34 °FPassing clouds.1 mph100%30.12 "Hg1 mi
4:20 AM34 °FFog.1 mph100%30.12 "Hg1 mi
3:50 AM34 °FFog.3 mph100%30.12 "Hg1 mi
3:20 AM34 °FFog.2 mph100%30.12 "Hg1 mi
2:50 AM34 °FFog.1 mph100%30.12 "Hg1 mi
1:50 AM32 °FFog.5 mph100%30.15 "Hg0 mi
1:20 AM32 °FFog.3 mph100%30.15 "Hg0 mi
12:50 AM34 °FPassing clouds.2 mph100%30.15 "Hg1 mi
12:20 AM34 °FFog.5 mph100%30.15 "Hg1 mi
11:50 PM
Dec 20
34 °FFog.6 mph100%30.15 "Hg0 mi
11:20 PM32 °FPassing clouds.6 mph100%30.15 "Hg1 mi
10:50 PM32 °FSnow. Overcast.3 mph93%30.15 "Hg1 mi
10:20 PM30 °FIce fog.No wind93%30.15 "Hg1 mi
9:50 PM30 °FIce fog.2 mph100%30.15 "Hg3 mi
9:20 PM30 °FIce fog.3 mph93%30.15 "Hg3 mi
8:50 PM32 °FPassing clouds.2 mph93%30.15 "Hg4 mi
8:20 PM32 °FPassing clouds.1 mph100%30.15 "Hg4 mi
7:50 PM32 °FPassing clouds.1 mph93%30.15 "HgN/A
7:20 PM34 °FPassing clouds.1 mph93%30.15 "Hg4 mi
Weather by CustomWeather, © 2014

See weather overviewHow to use our weather pages